Wind_Speed
54 54 57 58 55 54 56 57 56 53 51 51 53 54 54 56 58 61 62 66 68 68 72 73 76 78 81 74 71 69 66 65 62 50 60 64 65 66 68 70 73 77 81
56 56 57 56 56 58 58 57 53 49 49 50 53 55 57 59 62 63 65 69 71 76 74 75 77 78 75 70 65 63 62 66 68 61 57 65 65 69 72 75 78 83 87
61 61 57 54 56 55 54 51 49 48 47 49 51 53 55 57 59 63 67 72 77 75 72 71 70 68 64 65 64 65 70 74 70 68 59 68 69 71 76 78 81 85 86
63 63 59 53 48 47 46 44 46 46 50 52 55 59 63 64 67 70 73 70 67 70 71 71 70 63 62 65 68 73 74 72 73 74 71 68 72 76 82 81 80 84 90
65 64 50 44 41 40 41 44 48 51 56 59 62 64 66 68 69 67 65 66 61 61 61 62 63 65 67 66 65 68 71 74 78 78 76 75 76 75 77 82 88 92 94
63 60 52 48 48 49 51 54 56 56 59 63 64 63 65 66 65 64 64 63 57 57 61 64 66 68 67 68 72 74 75 76 78 79 78 76 73 79 82 88 93 96 104
56 46 50 55 56 57 58 60 62 62 63 66 63 62 63 62 61 62 58 56 59 58 56 59 61 64 67 68 69 69 71 75 79 80 76 77 77 86 89 91 93 101 102
57 56 55 59 61 64 65 63 64 68 67 66 64 61 62 57 53 50 47 44 48 52 56 58 60 62 63 67 71 71 71 72 75 75 75 78 83 87 92 96 100 103 105
63 64 63 65 67 70 72 67 66 67 66 66 65 60 54 52 45 43 41 41 48 59 64 63 61 62 66 70 68 69 67 71 73 75 79 81 86 89 95 101 102 108 110
71 65 68 70 72 73 72 70 67 66 67 68 62 55 53 50 46 42 44 54 67 66 66 64 69 68 65 69 74 77 79 79 78 78 79 83 85 89 94 100 105 108 101
73 77 83 87 86 81 74 70 67 67 69 65 58 56 57 53 48 55 66 72 76 79 72 69 70 69 68 69 71 77 83 82 78 78 81 82 84 89 94 97 101 95 77
91 95 95 93 79 68 65 67 68 70 69 66 63 63 63 62 67 72 76 74 74 73 69 70 79 80 73 70 69 73 75 80 79 82 80 81 85 88 92 96 91 73 67
75 77 75 70 70 71 72 72 73 73 73 70 71 74 78 76 78 79 78 75 70 67 75 81 73 74 76 74 75 75 76 78 79 78 79 82 87 89 91 89 70 63 59
65 68 65 62 67 69 68 72 76 79 81 75 80 82 83 83 78 72 65 68 73 78 76 75 72 69 73 76 78 75 72 74 75 77 80 84 87 89 89 71 59 58 55
67 69 68 66 70 69 69 72 74 83 87 80 72 79 84 77 61 58 63 65 70 66 64 66 65 67 70 76 76 68 65 70 74 78 82 84 86 87 75 58 55 54 54
76 71 72 84 76 72 78 79 82 86 83 82 81 84 95 73 72 68 73 61 70 69 65 64 63 63 67 71 64 56 62 67 72 75 78 82 83 80 62 53 50 51 52
87 86 82 87 84 87 90 85 85 88 88 81 82 87 85 79 74 78 77 62 70 69 62 62 65 61 56 54 50 54 58 64 69 71 75 79 78 68 60 53 48 49 49
85 87 82 79 84 98 93 91 88 91 84 82 81 87 95 91 85 63 62 62 71 63 57 62 66 56 46 44 49 53 57 61 63 68 72 74 69 61 60 52 49 49 47
106 110 106 101 96 97 100 96 89 87 88 90 93 101 102 83 85 62 66 68 63 59 60 60 57 47 41 43 48 51 57 59 62 67 70 69 61 57 56 53 50 50 45
112 98 94 100 108 116 121 120 116 116 111 109 108 104 78 78 80 72 66 63 58 57 57 52 49 40 39 43 46 50 57 60 63 67 67 63 55 55 52 51 50 43 44
87 88 85 84 87 96 103 108 109 115 92 91 87 74 63 60 63 65 56 56 57 56 50 52 46 38 40 44 48 50 57 63 65 68 64 60 51 51 48 46 44 40 39
60 58 54 56 62 66 66 67 66 65 61 59 59 60 59 63 56 46 48 52 53 50 51 47 36 38 42 45 49 52 57 62 67 68 61 56 49 47 43 40 38 39 32
39 41 44 50 52 51 51 48 43 39 44 47 51 53 55 50 44 46 48 48 49 49 45 38 36 40 42 46 50 53 58 63 68 70 61 53 46 42 39 36 34 34 27
36 41 43 45 42 37 33 32 37 43 41 46 45 44 45 45 44 44 44 47 49 43 38 37 39 42 45 48 52 55 59 65 69 71 64 53 44 39 36 33 33 32 25
27 29 30 27 24 26 29 31 32 30 40 38 42 43 39 39 38 40 45 50 45 40 38 39 42 45 46 50 54 56 58 64 70 72 64 53 44 38 35 33 31 28 23
22 20 20 24 22 24 29 32 33 33 30 36 34 32 32 33 39 46 48 45 41 39 40 41 45 47 50 54 57 59 60 64 69 71 60 50 44 34 33 31 27 24 20
Wind_Direction
261 264 264 269 271 274 276 278 279 276 273 270 268 271 273 274 276 278 276 277 282 287 291 288 283 283 283 284 284 284 282 284 283 281 284 282 281 282 282 284 285 284 283
268 263 263 266 269 272 273 273 273 272 271 272 273 273 275 275 278 281 282 282 285 285 286 285 285 286 287 284 282 284 285 288 289 287 282 281 283 285 286 285 284 284 285
267 265 264 265 266 268 267 266 268 271 274 278 278 277 277 278 281 281 279 279 282 284 287 288 288 287 286 286 289 290 290 292 290 288 283 285 287 289 286 287 287 289 289
265 266 267 263 262 262 265 269 269 266 275 279 279 281 280 277 274 275 278 280 283 286 286 285 285 286 287 288 290 291 291 291 291 291 291 290 292 291 290 290 288 292 294
264 266 259 255 257 262 267 274 281 276 278 277 275 274 274 275 277 276 279 283 286 286 286 288 290 291 289 288 289 291 291 291 291 292 292 292 291 290 291 292 295 298 298
259 262 259 258 263 273 276 280 284 281 277 276 276 275 274 274 275 277 281 284 287 287 289 293 295 293 289 290 292 292 291 291 291 292 293 293 293 295 298 299 301 300 300
254 261 266 271 273 274 277 281 281 279 276 276 277 275 276 275 276 278 283 286 289 295 298 299 299 295 294 293 294 296 297 296 295 296 295 296 299 301 301 303 303 304 305
261 269 273 274 272 273 276 279 279 278 278 277 277 275 276 278 277 280 287 292 297 301 302 303 302 300 296 295 296 297 295 295 293 295 297 298 301 303 303 305 306 304 306
260 270 271 270 272 272 274 275 276 277 275 272 272 275 274 272 274 275 279 292 302 305 305 306 308 305 297 300 301 301 301 302 300 298 298 299 302 304 305 305 305 308 309
269 273 274 274 270 270 273 277 276 271 267 265 268 270 269 263 267 274 281 288 301 301 302 304 305 307 309 305 301 300 299 300 303 299 297 298 302 304 303 305 308 309 308
272 276 274 278 276 276 277 275 274 269 264 261 260 260 265 264 266 275 284 291 298 300 301 304 307 309 307 304 299 299 301 301 298 299 299 300 302 302 304 309 309 306 301
272 269 268 272 274 275 274 274 274 274 268 260 258 262 263 261 271 277 283 290 296 299 303 307 314 312 308 301 298 297 299 301 300 301 301 302 302 305 310 311 307 299 297
263 264 265 269 272 274 275 275 276 276 270 265 266 268 272 273 277 279 280 283 292 302 309 311 310 308 307 297 295 293 294 297 298 301 302 303 305 309 314 308 300 295 296
260 258 263 265 266 266 265 270 270 270 270 269 272 277 271 270 271 278 283 291 298 305 304 306 306 302 302 296 292 292 295 298 301 302 303 306 309 316 313 304 297 295 299
259 253 258 260 261 259 261 263 267 262 259 260 267 272 270 269 273 274 288 296 294 286 293 298 298 299 294 293 291 294 299 303 304 306 308 312 317 318 312 302 300 301 302
255 256 257 256 255 256 256 258 261 263 267 270 271 271 273 261 266 284 293 281 277 278 289 293 289 287 287 287 289 299 304 306 307 310 315 318 321 317 310 304 305 304 305
255 252 256 258 257 259 261 254 258 261 264 263 268 265 262 266 277 286 291 284 268 276 285 287 287 282 282 284 295 301 306 309 310 317 321 323 321 315 312 310 310 308 307
259 262 255 258 255 259 262 255 256 255 256 263 262 276 284 282 290 280 280 273 270 273 283 283 280 276 278 291 298 304 309 312 319 324 325 323 319 314 312 313 313 314 310
262 267 265 265 261 259 258 258 259 260 264 273 279 282 283 285 285 276 264 269 268 278 280 272 271 272 281 292 301 308 311 318 325 328 325 322 316 313 313 313 316 317 315
271 271 267 266 259 254 261 266 270 271 268 276 280 276 274 272 276 269 260 263 270 273 272 263 264 272 285 294 306 314 317 320 328 330 325 319 314 313 313 311 314 316 316
268 267 265 264 263 263 266 267 268 269 275 270 269 266 263 255 254 258 255 260 264 264 260 262 265 275 287 296 308 317 318 320 327 329 324 319 311 311 310 310 315 316 317
259 261 259 258 260 263 264 264 263 260 256 253 249 248 241 245 248 250 254 257 257 254 257 259 266 278 289 298 308 316 319 320 325 329 324 318 309 310 308 311 312 316 314
249 252 256 262 267 269 265 257 249 252 243 250 247 236 239 244 248 251 251 250 251 250 252 260 271 282 292 300 308 314 319 320 323 326 322 317 308 310 309 312 313 315 311
260 258 259 263 265 252 243 235 242 250 241 241 232 233 238 240 241 243 247 248 245 247 256 267 276 285 293 301 307 313 319 320 323 325 322 317 310 309 311 312 314 314 306
260 259 260 250 235 233 240 242 248 253 238 234 238 239 236 236 239 245 247 243 245 252 263 272 281 288 295 302 306 311 317 321 322 323 320 316 313 307 310 312 312 311 302
254 247 247 244 253 242 238 241 245 257 246 231 227 226 228 233 239 242 240 243 250 259 269 278 284 290 297 301 305 309 315 318 319 321 315 312 313 301 304 307 309 307 296
Height
5650 5650 5648 5647 5645 5643 5641 5639 5637 5637 5637 5636 5635 5634 5633 5632 5630 5628 5626 5623 5619 5615 5612 5607 5602 5598 5592 5586 5582 5580 5576 5572 5575 5591 5574 5571 5564 5561 5556 5552 5545 5541 5538
5634 5633 5632 5632 5629 5628 5628 5625 5622 5622 5620 5620 5619 5617 5616 5615 5613 5612 5609 5606 5602 5597 5590 5586 5580 5576 5571 5567 5562 5560 5556 5552 5551 5558 5561 5548 5542 5535 5532 5528 5520 5513 5511
5615 5615 5616 5616 5613 5612 5612 5610 5607 5607 5606 5605 5604 5602 5601 5599 5597 5594 5590 5586 5580 5575 5570 5566 5562 5558 5552 5548 5544 5540 5535 5531 5527 5529 5537 5527 5518 5512 5505 5501 5496 5491 5484
5593 5596 5598 5596 5596 5594 5594 5595 5594 5592 5591 5589 5588 5586 5584 5582 5579 5575 5570 5565 5561 5557 5553 5550 5545 5539 5533 5527 5523 5519 5514 5510 5506 5503 5505 5506 5494 5487 5477 5472 5473 5466 5459
5576 5577 5580 5580 5579 5578 5580 5579 5577 5576 5574 5571 5569 5567 5564 5562 5559 5555 5552 5548 5544 5540 5536 5531 5525 5519 5513 5508 5503 5498 5493 5488 5483 5479 5478 5477 5474 5463 5454 5443 5436 5433 5429
5558 5562 5564 5563 5562 5561 5560 5559 5558 5557 5555 5552 5550 5548 5544 5542 5539 5536 5534 5530 5525 5521 5517 5511 5507 5502 5496 5491 5486 5480 5473 5466 5461 5455 5454 5447 5448 5432 5426 5419 5406 5395 5394
5542 5544 5546 5545 5545 5544 5541 5539 5537 5537 5534 5533 5531 5529 5527 5525 5523 5521 5516 5511 5508 5503 5498 5493 5489 5484 5478 5474 5468 5461 5454 5445 5436 5431 5429 5419 5418 5402 5394 5387 5377 5365 5360
5524 5524 5524 5525 5524 5523 5521 5519 5517 5516 5514 5512 5511 5511 5511 5508 5506 5502 5497 5494 5491 5486 5482 5476 5471 5465 5460 5454 5449 5444 5436 5426 5418 5413 5406 5397 5388 5380 5361 5350 5343 5328 5325
5501 5502 5503 5503 5503 5502 5501 5499 5498 5497 5496 5494 5493 5494 5493 5489 5487 5483 5480 5476 5473 5469 5464 5458 5454 5448 5443 5437 5432 5426 5419 5410 5403 5393 5385 5376 5364 5354 5337 5319 5312 5293 5285
5476 5477 5478 5479 5481 5480 5479 5478 5478 5478 5476 5474 5475 5474 5473 5470 5467 5464 5463 5459 5456 5451 5446 5439 5434 5428 5423 5418 5413 5406 5401 5393 5386 5379 5369 5359 5346 5333 5317 5297 5281 5267 5251
5454 5453 5453 5455 5458 5459 5459 5458 5458 5458 5457 5456 5457 5456 5455 5452 5449 5447 5446 5442 5439 5435 5428 5422 5416 5411 5404 5396 5390 5385 5380 5373 5365 5357 5349 5339 5328 5314 5297 5279 5255 5234 5224
5435 5432 5432 5434 5434 5436 5437 5438 5439 5438 5438 5439 5438 5436 5436 5433 5431 5429 5428 5426 5421 5416 5410 5405 5399 5394 5385 5378 5370 5365 5358 5353 5345 5338 5328 5318 5307 5294 5277 5257 5236 5220 5210
5414 5412 5413 5415 5417 5417 5417 5418 5419 5418 5418 5419 5419 5418 5417 5415 5413 5411 5408 5405 5401 5395 5393 5388 5381 5376 5370 5360 5352 5346 5339 5332 5326 5317 5308 5298 5284 5269 5254 5235 5218 5205 5198
5391 5392 5394 5396 5399 5400 5400 5401 5401 5399 5400 5400 5399 5399 5397 5394 5392 5391 5388 5385 5380 5375 5372 5368 5363 5357 5351 5344 5334 5327 5320 5313 5306 5298 5288 5276 5262 5246 5228 5209 5200 5190 5184
5369 5371 5372 5375 5378 5378 5380 5382 5381 5377 5376 5378 5379 5380 5379 5378 5375 5372 5368 5364 5360 5355 5351 5346 5342 5337 5332 5326 5317 5310 5304 5296 5288 5277 5266 5254 5239 5221 5205 5192 5182 5175 5167
5344 5349 5349 5351 5354 5357 5358 5360 5360 5361 5358 5357 5358 5359 5358 5353 5351 5348 5347 5346 5340 5336 5331 5327 5324 5318 5314 5309 5301 5295 5287 5280 5270 5258 5245 5231 5215 5200 5187 5179 5169 5160 5152
5320 5321 5325 5326 5331 5333 5334 5336 5336 5336 5335 5336 5338 5338 5335 5333 5329 5328 5327 5324 5323 5318 5313 5312 5310 5304 5300 5294 5288 5282 5275 5265 5254 5240 5227 5212 5195 5181 5171 5165 5156 5147 5139
5287 5292 5300 5299 5304 5306 5308 5308 5310 5311 5310 5310 5312 5312 5309 5309 5308 5308 5307 5305 5304 5300 5297 5296 5293 5289 5287 5282 5275 5268 5261 5252 5238 5224 5210 5196 5180 5169 5161 5153 5144 5134 5126
5256 5261 5268 5272 5276 5278 5279 5280 5283 5282 5285 5288 5290 5289 5287 5286 5286 5287 5287 5288 5286 5285 5281 5280 5277 5277 5274 5270 5263 5255 5247 5237 5223 5210 5196 5182 5169 5160 5152 5143 5133 5123 5113
5222 5224 5230 5237 5241 5246 5247 5251 5253 5254 5257 5262 5262 5266 5263 5263 5266 5266 5267 5268 5267 5269 5266 5265 5266 5263 5261 5257 5250 5242 5233 5224 5211 5198 5184 5171 5160 5152 5144 5134 5124 5114 5106
5191 5196 5201 5203 5206 5209 5213 5218 5222 5226 5228 5232 5238 5238 5237 5242 5242 5245 5246 5248 5251 5252 5250 5253 5253 5250 5247 5243 5237 5228 5220 5211 5199 5187 5172 5160 5152 5145 5136 5126 5116 5107 5098
5171 5174 5177 5179 5181 5184 5188 5191 5195 5200 5203 5207 5210 5212 5218 5223 5227 5228 5229 5233 5234 5235 5239 5240 5239 5237 5234 5230 5225 5216 5209 5199 5187 5176 5163 5151 5143 5137 5128 5118 5109 5101 5093
5155 5159 5161 5163 5165 5167 5169 5173 5178 5182 5186 5190 5194 5199 5206 5211 5213 5214 5217 5217 5221 5225 5227 5227 5226 5225 5221 5217 5211 5205 5196 5186 5176 5164 5153 5144 5135 5128 5120 5110 5102 5095 5089
5143 5145 5147 5148 5150 5152 5156 5161 5165 5169 5172 5177 5184 5190 5194 5197 5200 5202 5205 5209 5214 5215 5216 5216 5215 5212 5208 5203 5197 5191 5182 5171 5163 5153 5142 5132 5125 5119 5112 5104 5097 5090 5085
5131 5134 5136 5138 5141 5144 5148 5152 5156 5158 5163 5168 5175 5178 5180 5185 5190 5194 5199 5203 5204 5205 5205 5204 5203 5200 5195 5190 5185 5178 5170 5159 5150 5142 5132 5122 5116 5110 5105 5098 5092 5087 5082
5124 5127 5130 5132 5135 5138 5142 5145 5148 5150 5152 5156 5162 5167 5173 5178 5184 5189 5192 5193 5194 5193 5192 5191 5190 5186 5181 5177 5172 5165 5157 5149 5140 5132 5122 5113 5109 5104 5098 5093 5087 5082 5079